Wind_Speed
40 39 38 37 37 37 39 39 39 41 42 43 44 45 45 46 46 46 42 37 33 32 32 32 33 35 37 35 34 34 33 33 34 33 32 31 29 29 30 30 31 33 37 39 42 47 52 56 57 58 59 57 49 40 23 14 29 48 56 48 34 35 47 54 53 57 58 56 52 50 49 49 53 52
40 39 38 37 37 37 37 38 39 40 42 43 43 44 44 44 44 45 43 38 32 30 31 31 32 34 35 35 34 34 34 33 33 33 32 30 28 28 30 29 29 30 34 38 40 44 48 52 56 57 58 57 50 41 29 16 21 34 43 44 40 40 47 51 51 53 56 56 52 48 45 45 49 48
39 38 38 37 37 37 37 37 38 39 40 42 42 42 42 42 42 41 42 40 32 28 30 31 31 33 34 35 34 34 34 33 33 33 32 30 27 27 29 29 29 28 30 36 40 41 45 48 52 55 57 56 49 42 34 22 19 26 30 34 39 44 47 47 47 47 46 47 46 44 42 43 48 48
38 37 36 36 37 37 37 36 37 38 39 40 41 41 40 40 40 38 39 40 33 27 30 32 31 33 34 34 34 34 34 34 33 32 31 30 27 26 28 29 28 27 27 33 39 40 43 46 49 52 55 54 49 43 39 30 21 23 24 26 34 42 45 44 44 43 43 43 42 42 43 44 48 49
36 36 35 35 35 35 36 36 37 37 38 39 39 40 39 38 36 36 36 38 34 27 29 32 30 32 33 32 33 33 33 33 33 31 31 29 27 26 27 27 27 26 25 29 34 39 42 44 46 48 50 51 47 43 41 38 30 23 22 22 30 39 44 44 43 43 44 46 45 45 45 46 49 50
34 35 35 35 34 34 35 36 36 36 37 37 38 38 37 35 33 33 34 36 34 28 27 30 30 30 31 30 31 32 32 32 32 31 30 29 27 25 25 26 26 26 25 25 29 35 40 43 45 46 47 47 46 43 40 39 38 30 21 21 27 36 43 45 44 43 45 47 48 49 48 48 50 50
33 34 34 33 33 33 34 34 34 35 36 36 37 36 35 34 31 31 32 34 33 29 26 28 29 28 29 29 29 31 32 31 30 29 29 28 27 25 25 25 25 25 25 24 25 29 36 40 42 44 45 46 45 43 39 39 39 36 26 22 29 34 39 41 42 43 45 47 48 50 49 48 48 47
34 33 32 32 32 33 34 33 33 34 34 35 35 35 34 33 30 29 30 31 31 28 25 25 27 27 27 28 28 30 31 31 29 27 27 28 27 25 25 24 24 25 25 24 23 25 30 35 39 41 43 44 45 44 40 38 38 37 31 23 31 36 37 40 42 44 47 49 50 50 48 47 46 44
36 34 32 31 31 32 33 33 32 32 33 33 34 34 33 31 29 28 28 28 27 27 24 23 25 26 26 27 28 29 30 30 28 26 26 26 26 25 24 24 24 23 23 23 23 23 25 29 33 37 41 43 44 45 41 38 37 36 32 24 32 38 39 42 44 46 48 50 50 49 47 45 45 44
38 36 33 31 31 31 32 32 31 31 32 32 33 33 31 30 28 27 26 25 25 25 23 23 24 24 25 26 27 29 30 28 27 25 25 25 25 25 23 23 22 21 21 22 23 23 23 25 28 32 37 41 44 45 44 40 38 35 32 26 29 36 39 41 43 45 47 49 49 48 47 47 47 46
40 38 34 31 30 30 31 31 31 31 31 32 32 32 31 30 28 26 25 24 25 24 23 23 23 23 24 25 26 27 28 27 26 24 23 23 23 23 23 22 21 20 20 21 22 22 22 23 24 26 31 36 41 44 45 43 40 36 33 29 28 32 36 38 39 41 45 48 49 49 48 51 52 51
40 38 35 32 30 29 30 30 30 30 31 32 32 32 31 29 27 25 24 25 25 24 24 23 23 23 23 23 25 26 26 26 25 24 22 21 21 22 20 19 20 20 20 20 20 21 21 21 22 23 26 31 36 41 44 43 41 39 35 32 31 31 34 37 37 38 41 45 48 50 51 53 54 54
39 38 36 33 31 29 30 30 30 30 31 31 31 31 30 29 27 25 25 25 24 24 24 23 23 23 22 22 24 24 24 24 24 23 21 19 19 19 18 18 19 19 17 17 18 20 20 20 21 22 24 28 33 37 41 43 42 41 38 34 32 32 32 34 35 38 39 41 44 47 51 54 52 49
38 38 36 34 31 30 30 29 30 30 31 31 31 30 30 29 27 26 25 24 24 24 24 23 23 22 20 21 23 23 23 23 21 21 20 18 17 16 16 18 19 17 15 15 17 18 19 19 20 21 23 26 29 34 38 41 43 43 41 37 34 33 32 32 34 37 39 39 40 42 44 47 47 45
38 37 36 33 32 31 30 29 29 30 31 31 30 30 30 29 27 26 25 24 24 24 23 23 23 21 19 20 22 21 21 20 20 19 19 18 16 14 15 17 18 17 16 16 17 18 19 18 19 20 22 24 27 31 35 38 41 43 44 41 37 34 32 32 33 36 40 41 39 39 40 40 40 40
39 37 35 33 32 31 31 29 29 30 31 32 30 30 30 29 27 26 24 24 23 23 22 22 22 21 19 20 21 20 19 19 19 19 18 17 16 14 14 17 18 18 16 16 17 18 18 17 18 19 21 23 24 27 31 35 39 42 44 43 40 36 33 32 33 35 38 41 42 41 40 39 37 36
41 38 36 34 32 32 31 30 30 30 31 32 31 31 31 29 26 25 24 23 22 22 22 22 21 21 20 19 19 19 18 18 18 18 18 17 15 14 14 16 17 17 15 15 16 16 15 15 17 18 20 21 23 25 28 31 35 39 42 44 42 40 37 34 34 35 37 40 42 42 41 40 38 37
41 39 37 34 33 32 32 31 30 30 31 32 32 32 31 28 26 25 23 22 22 21 21 21 21 21 20 18 19 18 17 17 18 18 17 16 15 14 15 15 16 15 14 13 14 16 15 15 16 18 19 20 21 24 26 29 32 36 40 43 43 42 41 38 35 35 37 39 42 43 42 40 39 38
39 38 36 34 33 33 33 32 31 30 31 32 32 32 30 27 25 24 22 22 21 21 21 21 21 21 19 17 17 17 16 16 17 16 16 15 14 14 14 15 14 14 14 14 14 15 15 14 15 16 16 17 19 22 25 28 31 34 37 41 43 44 43 42 39 37 36 38 41 44 44 42 41 40
36 35 34 33 33 33 33 31 31 31 32 33 33 31 29 27 25 23 22 22 22 21 21 21 22 21 18 16 16 16 14 14 15 15 15 14 13 14 14 14 13 14 15 15 15 15 14 13 13 14 14 15 17 20 23 27 30 33 36 39 42 44 44 45 43 40 38 37 39 42 44 44 43 41
34 33 32 31 33 34 32 31 31 32 33 34 33 31 29 27 25 22 22 22 22 22 21 21 21 20 17 16 15 14 13 13 14 14 14 13 13 13 14 13 14 15 15 14 13 13 13 12 12 13 14 14 15 17 20 25 29 32 36 39 41 43 44 45 45 43 41 39 38 40 42 43 43 42
31 31 31 31 33 33 31 30 31 32 34 34 32 30 28 26 24 22 22 23 23 22 22 21 21 20 17 15 14 13 12 12 13 14 13 12 13 14 14 14 15 16 15 12 12 12 12 11 11 12 13 14 14 14 17 21 26 30 34 37 41 43 45 45 45 44 43 41 40 40 41 42 43 42
29 29 30 31 32 31 29 30 31 33 35 34 31 29 28 25 22 21 22 23 23 23 23 22 20 19 17 15 13 12 12 12 12 14 13 13 14 14 14 15 16 16 14 12 11 11 10 10 10 11 13 13 12 11 14 18 23 28 31 35 39 42 44 46 47 46 45 43 41 41 41 41 41 42
28 28 29 30 30 30 29 30 31 33 35 33 30 29 27 23 20 22 23 24 24 24 24 22 21 20 18 16 13 11 12 11 12 13 14 14 15 15 15 15 15 14 12 11 10 9 9 10 10 10 11 11 9 9 12 15 19 24 28 32 36 40 43 45 47 48 47 45 43 42 41 40 39 40
28 26 27 28 28 28 28 30 32 34 35 33 30 28 25 21 22 25 24 24 25 25 24 23 22 21 19 16 13 11 12 12 12 13 14 15 15 15 15 16 15 13 12 10 9 9 8 9 10 10 9 9 8 8 9 13 16 19 22 26 31 35 39 42 45 47 48 47 46 44 43 41 40 39
27 25 25 26 26 27 28 29 32 34 34 32 30 27 23 23 25 25 24 24 25 24 24 24 23 21 19 16 14 13 13 13 12 13 14 15 16 16 16 16 15 13 12 10 9 8 7 8 9 9 8 8 6 5 7 8 11 13 16 20 24 29 34 38 42 45 47 47 47 46 45 44 42 40
27 26 25 24 24 26 27 29 32 34 33 32 30 26 24 25 27 25 25 25 25 23 23 23 22 20 19 17 16 15 14 13 12 12 13 15 16 16 16 16 16 14 13 11 9 7 7 7 8 8 8 7 4 5 7 6 6 9 11 13 17 21 27 32 37 40 43 45 46 46 46 45 45 43
29 27 25 23 24 26 28 29 33 35 33 32 30 27 25 26 27 26 26 25 23 22 22 21 20 19 18 17 17 16 16 15 14 12 12 13 15 15 16 16 16 15 14 12 10 8 7 7 6 6 7 6 4 5 8 6 5 7 10 10 12 15 19 24 30 34 38 41 43 44 44 44 46 46
29 27 26 25 25 26 28 30 34 36 35 33 30 27 25 26 27 27 27 25 23 22 20 19 18 18 17 17 17 18 18 17 16 14 13 13 13 14 14 15 15 15 14 12 10 8 7 7 6 6 7 6 4 5 8 7 4 6 9 9 9 10 12 16 21 26 31 35 38 40 41 41 42 44
28 27 27 26 26 27 29 31 36 38 37 35 33 29 26 26 27 27 27 26 23 20 18 17 16 17 18 18 19 19 19 18 17 16 14 13 13 12 12 13 14 15 14 12 11 9 8 7 7 7 8 8 6 5 8 8 6 6 7 8 8 7 7 9 13 18 24 29 32 35 38 39 40 41
27 26 27 27 27 28 30 33 38 39 38 37 36 33 30 29 28 27 27 26 22 18 17 17 17 17 18 18 18 18 17 17 17 17 16 15 14 13 12 13 14 15 14 13 11 10 9 8 8 7 9 10 8 7 8 8 7 5 4 5 6 4 2 3 7 11 16 21 27 31 35 37 39 40
26 26 26 27 28 29 31 35 40 42 40 39 38 36 34 32 30 28 27 26 22 19 18 18 18 18 18 18 18 17 16 16 16 16 16 16 16 15 15 13 13 14 14 13 12 11 10 9 9 9 10 10 10 10 10 9 9 7 5 4 4 3 1 1 4 7 10 14 20 26 30 33 36 37
26 26 26 25 26 29 32 35 40 43 43 41 39 38 36 34 32 30 29 27 23 20 19 19 19 19 18 18 17 17 16 16 16 15 15 16 16 17 16 15 15 15 15 14 14 12 11 11 11 11 12 12 12 12 12 13 12 10 9 7 4 2 2 3 2 3 6 9 12 17 23 28 31 34
26 26 24 22 23 27 31 35 40 44 44 42 40 39 38 36 33 31 30 28 24 21 20 21 20 19 18 17 17 17 16 15 15 15 15 15 15 15 15 16 17 17 16 16 15 14 13 13 12 12 13 13 13 13 14 15 15 13 12 10 7 5 4 5 3 3 4 5 6 9 14 19 24 28
24 24 23 22 23 26 28 33 40 44 44 43 41 40 39 37 35 33 31 28 25 23 23 23 21 19 18 17 17 16 16 16 15 15 15 14 14 13 13 14 16 17 17 17 16 16 15 14 13 13 13 14 14 14 15 16 16 15 14 12 10 7 6 6 5 3 4 4 3 4 7 12 16 21
23 23 23 22 24 26 27 31 38 43 44 42 41 40 39 38 36 34 32 28 25 24 23 23 21 19 18 17 17 16 16 16 16 15 14 13 13 12 12 12 12 14 16 17 18 18 18 16 15 14 14 14 15 15 15 15 15 15 14 13 12 10 9 8 6 4 4 5 4 4 5 7 10 14
22 23 23 22 23 25 27 31 38 43 44 42 40 39 39 38 37 35 33 29 26 24 24 23 22 20 18 17 16 16 16 16 16 15 14 13 12 11 11 10 10 11 13 16 19 20 19 18 17 16 15 15 15 15 15 16 15 14 13 14 13 12 10 9 7 6 5 6 7 7 6 6 7 9
22 23 23 23 23 25 27 31 38 43 43 42 40 39 38 38 37 36 33 29 25 24 24 24 22 20 18 17 16 16 16 16 16 15 15 14 13 11 10 10 10 11 12 14 17 19 20 20 19 18 17 16 15 15 16 16 17 16 15 15 14 14 13 11 10 9 9 8 8 8 8 8 8 8
22 23 23 24 24 24 26 31 37 42 43 42 40 39 38 37 37 35 32 27 25 25 25 24 22 20 18 17 17 16 16 16 16 16 15 14 13 12 11 11 11 11 12 13 14 16 18 19 19 19 19 18 18 19 19 18 19 19 19 17 17 16 15 14 13 12 11 11 9 9 9 9 9 9
21 22 23 23 23 24 26 32 38 41 42 42 40 38 37 36 35 33 29 26 25 26 26 24 22 20 19 18 17 16 16 16 16 16 16 14 13 12 12 12 12 12 12 13 14 15 16 16 17 18 19 20 22 23 22 21 20 21 20 20 20 19 17 16 15 13 12 12 12 11 10 10 10 10
19 21 22 22 22 23 27 32 38 41 42 42 40 38 36 35 34 31 28 26 27 27 26 24 23 21 20 19 18 17 16 17 17 16 15 14 13 13 13 12 12 12 12 12 13 14 14 15 15 16 18 21 22 23 23 22 21 22 22 22 22 22 21 19 17 15 14 14 14 13 12 11 11 11
18 19 20 21 22 24 27 32 38 41 42 41 39 36 34 33 32 30 28 28 29 28 26 24 24 22 21 20 18 17 17 17 17 16 15 14 13 13 13 12 12 12 12 12 12 13 14 15 15 15 17 19 21 21 21 20 20 21 23 24 24 24 23 22 20 18 17 16 15 15 14 13 12 12
17 18 19 21 22 25 29 33 37 40 41 39 37 35 34 32 30 29 28 29 29 28 26 25 24 22 21 20 19 18 17 17 16 15 15 14 13 13 13 12 12 12 12 12 13 14 15 15 16 16 18 19 19 18 18 18 18 18 19 22 25 25 24 24 23 21 20 19 17 16 16 15 14 13
16 17 18 21 23 27 31 35 36 37 38 38 36 35 34 32 30 29 29 29 29 27 26 25 24 23 22 21 19 18 17 16 16 15 14 14 14 13 13 13 13 13 13 13 13 13 14 15 16 18 18 18 17 16 15 16 16 15 15 18 23 25 25 25 25 24 23 21 20 19 18 17 15 15
13 15 17 20 24 27 31 35 36 35 35 36 36 35 33 32 31 31 31 30 28 27 26 25 24 23 23 21 19 18 17 16 15 14 14 14 14 14 14 14 14 14 13 13 12 12 13 15 16 17 17 16 16 16 14 14 14 13 13 16 20 23 24 25 25 24 24 23 22 21 20 19 18 17
Wind_Direction
274 276 277 279 280 283 284 283 281 279 277 274 273 273 273 274 275 274 272 269 268 267 266 266 266 267 268 267 265 263 262 262 263 263 264 265 265 265 265 267 266 256 242 238 240 239 240 242 242 243 243 242 247 251 240 180 177 189 197 200 182 174 197 206 210 217 222 223 221 220 218 216 221 226
272 274 276 278 279 282 283 282 279 278 275 272 271 271 271 271 273 274 274 270 266 266 265 264 265 266 268 267 265 264 262 262 263 264 264 263 262 263 264 265 265 259 245 236 237 237 238 241 242 243 243 243 247 251 245 211 177 176 180 184 179 180 198 209 212 215 219 222 222 221 220 216 217 219
270 272 274 277 279 282 282 280 278 277 274 271 269 268 268 269 271 272 273 271 267 266 265 264 264 265 266 266 266 265 263 262 262 262 262 261 259 259 261 263 263 261 250 238 234 235 236 239 241 242 242 243 247 250 247 232 193 172 164 162 167 180 195 200 202 204 208 214 218 222 224 220 214 213
269 270 272 275 278 281 281 279 277 275 273 270 267 267 266 267 270 271 272 271 269 267 266 265 264 265 266 266 265 264 262 262 261 260 260 260 257 256 257 260 261 261 254 242 235 234 234 236 238 240 240 241 246 248 247 242 219 185 168 157 160 176 191 197 199 203 207 213 219 225 231 230 221 214
269 270 271 274 277 279 279 277 276 275 272 268 265 265 265 265 268 268 269 271 271 268 266 267 265 265 266 266 265 264 261 260 260 258 258 257 255 253 254 257 258 258 256 247 239 234 233 233 235 237 238 239 243 247 246 245 239 212 180 161 158 171 188 199 206 211 216 221 226 229 232 237 234 225
268 269 271 274 276 276 276 275 275 275 272 268 265 263 263 263 263 264 266 269 270 267 264 265 265 264 265 265 264 263 260 258 257 255 254 254 253 251 252 254 256 256 255 250 244 237 234 233 233 233 235 236 240 246 245 244 244 236 206 170 159 169 183 193 201 208 215 221 226 229 231 236 239 236
265 267 269 273 275 275 273 272 274 274 271 267 264 262 260 260 259 261 263 266 268 267 262 262 264 264 264 264 262 261 260 258 256 254 252 251 250 250 250 252 253 254 254 251 247 241 236 235 234 233 233 234 237 242 245 244 244 244 231 188 165 171 182 193 201 206 213 221 226 228 229 231 235 238
262 263 266 271 273 273 272 272 273 272 269 265 263 260 258 258 257 257 259 261 264 264 261 260 263 264 264 263 261 260 259 258 257 253 250 248 247 247 248 250 251 251 251 251 248 244 239 237 235 233 232 232 235 239 242 243 243 245 242 206 174 176 186 197 206 208 212 221 224 224 225 226 229 231
261 260 263 266 269 271 272 273 273 271 267 262 260 258 256 256 255 254 254 256 259 261 260 261 264 266 266 263 260 259 258 258 258 254 249 246 245 246 247 249 250 250 250 250 248 244 242 239 236 234 232 231 233 236 239 243 243 245 245 217 181 179 184 191 197 199 204 213 219 222 221 218 218 219
260 259 260 262 266 268 270 272 273 269 264 259 257 256 255 254 252 249 249 251 255 258 261 264 267 269 267 264 259 257 257 256 257 254 249 245 244 245 248 249 250 251 250 249 248 245 243 243 239 236 234 232 233 235 238 241 244 245 245 229 196 183 181 182 187 190 194 202 211 217 217 211 208 211
260 260 259 259 261 264 267 269 270 266 261 256 254 254 253 250 247 245 246 249 253 257 261 265 268 269 267 263 258 255 256 256 256 254 249 245 244 243 245 248 250 250 249 247 247 246 244 245 244 240 236 233 233 235 237 240 243 244 242 235 217 198 187 183 184 185 188 193 200 207 211 209 206 208
260 260 259 258 258 260 263 266 267 264 258 254 252 251 250 247 245 244 246 250 254 258 261 265 268 268 266 262 257 254 255 257 256 254 248 243 243 244 245 248 250 249 249 248 247 246 244 244 245 243 239 234 232 234 236 237 240 242 241 236 229 216 201 192 188 185 186 187 191 198 203 205 203 203
260 259 258 257 256 256 258 262 264 261 255 251 250 249 247 244 243 243 247 252 256 259 261 263 266 268 265 261 258 255 255 256 256 254 249 242 240 243 248 250 249 247 247 248 247 245 243 242 244 245 242 237 233 233 235 235 236 239 241 238 233 228 218 207 198 190 187 186 186 192 197 200 200 198
260 260 257 255 254 254 254 257 260 258 252 248 246 245 244 243 243 245 248 252 256 258 260 262 264 266 264 259 257 255 255 255 255 254 251 246 241 240 246 251 250 246 243 242 243 242 241 240 242 245 245 241 237 234 234 234 234 236 239 238 236 234 230 222 210 199 195 192 188 187 191 197 202 200
260 260 257 253 251 252 252 254 256 254 250 246 243 241 240 241 243 247 249 251 254 256 257 260 263 264 261 257 255 254 254 255 255 253 251 248 244 239 240 246 247 243 237 233 234 234 233 235 239 242 245 244 241 237 235 234 233 234 236 237 235 235 234 229 220 208 203 202 200 194 190 191 197 200
259 259 257 253 249 249 250 251 252 250 246 243 240 237 237 238 241 246 250 251 253 254 256 258 261 261 257 254 254 253 253 254 254 253 251 248 244 238 234 238 240 239 233 227 227 228 226 230 236 241 245 246 245 242 238 235 233 233 233 234 233 233 233 232 227 217 208 206 207 206 202 196 197 199
257 257 257 252 247 247 248 249 249 246 243 240 237 235 235 237 240 245 248 249 250 251 252 255 257 257 253 252 252 252 252 253 253 253 251 247 243 236 230 230 233 234 229 222 225 229 228 232 239 244 247 248 248 246 242 237 234 232 231 231 231 231 231 231 229 223 216 210 208 209 209 205 202 204
255 256 255 250 245 244 246 246 246 243 239 237 235 234 235 236 239 243 245 246 246 248 250 251 252 253 252 250 250 251 250 252 251 250 247 243 238 233 229 226 225 225 223 222 228 234 235 239 246 250 252 251 249 247 244 240 236 232 231 230 229 229 229 230 229 227 222 217 213 211 211 210 206 206
254 254 253 249 243 242 244 244 244 240 235 233 233 233 233 234 237 240 242 242 243 243 245 246 248 250 250 247 247 248 247 248 249 246 243 238 233 228 227 224 219 217 220 225 233 239 241 245 251 256 259 258 253 248 244 241 237 233 231 230 230 229 229 229 229 228 225 222 218 215 214 214 214 213
252 251 251 247 242 241 242 243 242 237 231 230 230 231 231 233 235 237 239 239 239 239 240 242 245 247 245 242 243 245 245 246 247 243 237 233 228 224 221 217 213 215 222 228 236 244 248 253 259 265 268 267 261 252 244 240 238 234 230 229 229 229 229 229 229 229 227 225 223 220 218 216 217 216
249 249 249 245 241 241 241 241 239 234 229 228 229 229 229 231 233 235 236 237 237 237 237 239 242 244 241 236 236 240 242 242 242 238 232 226 221 217 213 212 213 219 224 228 237 248 254 260 268 275 279 278 272 261 248 241 238 234 231 229 228 227 228 229 229 229 229 227 226 224 222 219 217 216
245 245 246 244 241 240 239 239 235 230 228 227 227 228 229 230 232 233 234 236 236 235 234 235 238 242 240 234 232 235 238 238 237 233 225 216 213 211 209 210 216 222 226 229 238 250 259 269 279 284 288 289 283 269 254 242 237 234 231 229 227 226 225 226 227 228 228 229 229 228 225 223 220 218
241 242 244 242 240 239 237 236 231 226 226 227 225 226 227 228 230 231 232 233 233 233 232 231 233 237 238 236 233 233 235 235 233 229 218 206 206 210 210 213 220 224 228 232 241 254 267 279 288 292 294 296 291 274 255 242 236 233 230 228 227 225 225 224 225 225 226 226 228 229 228 225 222 221
240 241 242 241 240 238 236 233 227 223 225 225 223 224 226 226 228 230 229 230 230 230 230 228 228 231 235 235 234 233 234 234 230 224 214 204 204 209 212 219 225 228 231 237 245 256 271 282 292 300 300 295 287 268 250 240 234 231 229 227 225 224 224 224 224 225 224 223 223 225 227 226 223 221
241 241 240 239 238 237 235 230 223 220 222 222 220 222 223 222 225 228 228 228 229 228 227 226 225 227 231 233 232 230 231 231 227 221 213 206 206 208 214 222 229 231 235 242 249 258 271 285 294 299 297 288 274 255 241 234 228 226 225 224 224 223 222 222 223 225 225 223 221 220 222 224 223 221
240 239 237 236 234 234 233 227 219 217 219 220 219 218 217 219 225 227 227 227 228 227 225 224 224 225 228 230 225 221 223 224 222 217 211 209 209 210 214 223 229 233 236 240 246 256 269 283 292 293 288 282 269 238 221 223 222 217 216 219 221 222 221 220 221 222 224 224 222 220 219 220 221 221
238 238 234 232 231 230 230 223 215 213 215 217 217 213 212 220 225 226 226 227 227 226 225 223 222 223 225 224 218 213 214 217 218 217 212 210 212 212 214 222 228 233 237 239 242 250 262 273 281 283 279 276 262 212 199 202 206 203 201 205 212 217 219 220 219 220 222 224 224 222 219 218 218 219
237 238 234 229 226 226 227 219 211 209 211 214 215 211 210 219 225 225 225 226 225 225 224 221 220 219 219 218 214 209 210 212 213 215 214 213 214 214 216 223 230 235 238 240 242 244 254 262 263 259 257 260 253 214 199 186 177 184 180 181 197 208 214 217 218 218 219 221 223 223 222 220 219 218
236 237 234 229 223 222 223 216 207 205 206 208 211 211 211 219 225 224 225 226 223 222 221 219 217 215 214 214 213 210 210 210 210 210 212 214 216 214 214 221 230 237 238 238 239 239 245 253 250 233 223 227 236 208 191 180 174 183 177 170 179 194 206 213 216 217 217 219 221 222 223 223 222 220
234 235 234 231 223 219 219 212 205 204 204 203 204 206 210 220 225 224 224 225 222 218 219 217 214 214 213 213 214 214 213 212 210 210 210 212 216 215 211 213 223 232 235 232 231 234 237 241 243 227 211 211 210 189 186 193 200 198 193 191 187 184 197 210 214 217 218 218 220 221 223 224 225 225
231 231 231 230 223 217 216 210 203 202 204 203 203 202 206 215 222 223 225 226 220 215 216 214 211 211 211 211 213 215 216 215 213 211 210 210 213 214 210 209 215 226 234 232 227 226 228 230 232 225 213 208 201 183 183 194 198 194 205 212 196 173 158 194 207 215 220 221 222 223 224 225 227 228
231 230 230 228 221 216 213 209 203 200 201 203 203 203 205 210 216 219 224 225 218 211 211 208 206 206 207 207 209 211 213 216 216 214 212 212 213 213 209 206 210 220 230 234 230 225 222 222 223 221 216 212 204 192 184 186 190 186 169 155 153 144 130 184 199 203 211 219 223 225 226 226 227 228
231 230 229 227 221 216 213 209 204 201 201 201 202 204 206 208 211 216 221 221 216 210 208 206 205 204 205 207 209 209 210 212 214 215 214 214 216 215 209 205 208 215 223 230 233 229 221 217 217 218 218 217 212 199 188 189 199 199 181 171 184 220 216 210 207 200 202 210 218 224 226 226 226 227
226 227 226 222 218 216 215 210 205 203 203 202 201 203 206 207 210 214 218 217 214 210 209 208 207 206 207 211 213 213 213 213 214 214 213 214 218 219 212 206 207 211 216 224 231 233 228 221 216 215 218 221 219 208 194 192 201 209 205 208 231 251 223 208 217 237 231 221 217 222 226 225 225 225
223 226 225 216 211 212 214 212 206 203 203 204 203 203 205 206 209 213 216 214 210 209 209 209 208 207 209 213 216 217 218 219 219 218 215 214 216 218 215 210 208 209 213 217 223 229 232 228 222 217 217 220 221 216 206 200 203 212 218 222 232 236 219 205 210 238 249 244 234 226 223 221 221 222
221 225 226 217 208 207 210 210 206 203 204 205 206 205 205 206 208 212 215 213 210 209 209 209 207 208 211 214 217 220 221 222 224 225 224 221 217 215 214 212 209 207 208 210 215 223 229 231 229 224 220 220 220 217 214 212 212 215 218 222 226 228 221 213 217 237 247 242 240 242 240 232 224 220
216 220 223 217 208 205 206 206 204 203 203 205 207 207 207 207 209 212 215 214 211 211 211 209 208 210 213 215 219 222 223 224 225 227 229 229 226 222 219 216 213 208 202 202 209 217 224 228 232 232 228 226 223 218 216 218 220 220 218 218 222 227 224 217 217 229 240 243 242 242 246 246 236 226
214 216 217 212 206 204 205 203 201 201 203 205 207 209 209 208 210 214 217 216 214 214 215 212 210 211 214 218 222 224 223 225 226 227 229 231 232 230 228 225 223 218 211 207 211 216 220 223 227 231 233 234 233 229 224 221 222 224 223 219 219 223 223 217 212 216 225 235 240 238 238 240 240 234
212 213 212 209 205 203 203 201 199 200 202 204 206 209 210 210 212 215 218 217 217 218 219 215 211 212 215 219 224 225 224 224 224 225 226 229 232 234 235 233 232 229 226 222 220 221 221 220 220 224 229 233 236 237 233 227 224 225 225 222 221 223 222 217 214 215 219 223 228 231 234 236 236 232
208 209 208 207 205 203 202 199 197 198 202 204 205 208 210 212 214 217 218 218 220 222 221 217 214 215 216 219 223 224 223 222 222 221 222 224 228 234 238 238 237 235 233 231 229 229 227 223 219 220 221 223 228 233 234 230 227 227 227 226 225 226 225 221 219 219 219 219 223 227 230 230 228 227
207 208 207 207 205 202 200 198 196 197 201 204 205 206 209 212 215 217 218 219 221 223 222 218 217 218 218 219 222 222 221 220 219 219 219 221 225 231 236 237 236 236 235 233 232 234 234 231 226 222 219 220 224 229 233 233 231 230 231 230 228 227 227 224 222 221 219 220 224 227 228 227 226 223
208 211 210 207 203 199 198 198 197 198 200 202 204 205 208 212 214 214 213 216 220 222 222 219 218 218 218 219 221 220 218 217 217 218 219 222 226 232 236 237 236 234 233 231 229 230 233 233 230 224 219 219 221 225 229 231 230 228 229 230 230 228 227 226 225 222 219 219 222 223 222 222 222 219
207 211 209 205 200 197 195 195 196 198 200 201 202 204 207 209 209 208 210 215 219 221 221 219 218 217 217 218 219 218 217 215 216 218 221 223 227 233 236 237 236 235 232 229 226 228 231 233 232 227 223 221 221 222 224 228 230 228 225 226 227 227 226 226 227 225 221 219 220 220 219 218 215 211
203 206 205 201 198 196 194 192 192 196 198 199 200 203 206 206 206 207 211 215 218 219 220 219 217 216 216 216 216 216 216 215 216 219 221 224 227 232 235 235 235 233 231 228 227 229 232 235 235 234 230 225 222 220 220 224 230 231 224 221 223 224 224 225 227 227 224 223 222 221 221 220 215 211
195 200 201 199 198 197 195 192 190 191 195 197 199 202 202 202 203 206 210 213 215 217 218 218 216 215 214 214 214 215 216 217 218 220 222 224 227 230 231 232 232 231 231 232 232 233 234 236 237 236 231 223 217 214 212 215 222 225 218 213 214 218 219 222 225 227 226 226 227 226 225 224 221 219
Height
2903 2903 2903 2903 2903 2902 2901 2900 2900 2899 2897 2896 2895 2894 2894 2894 2893 2894 2895 2897 2899 2900 2900 2901 2901 2900 2900 2901 2903 2903 2904 2904 2904 2904 2904 2904 2904 2903 2903 2904 2903 2902 2903 2904 2905 2908 2911 2913 2917 2919 2922 2927 2931 2935 2935 2934 2933 2931 2934 2940 2940 2940 2944 2948 2953 2958 2963 2969 2974 2978 2982 2986 2991 2997
2896 2896 2896 2896 2896 2896 2896 2895 2894 2893 2892 2891 2890 2889 2889 2889 2889 2889 2889 2891 2895 2896 2895 2895 2895 2895 2895 2896 2897 2898 2899 2899 2899 2899 2900 2900 2900 2899 2899 2899 2899 2898 2898 2899 2901 2903 2906 2908 2911 2914 2917 2920 2924 2927 2928 2929 2930 2929 2930 2935 2939 2939 2939 2943 2949 2954 2958 2965 2971 2974 2977 2981 2986 2992
2890 2890 2890 2889 2889 2889 2889 2889 2888 2887 2886 2885 2885 2884 2883 2883 2884 2885 2884 2884 2889 2892 2890 2890 2890 2890 2891 2891 2892 2893 2893 2894 2894 2894 2895 2895 2896 2895 2895 2895 2895 2894 2894 2895 2897 2898 2901 2903 2906 2908 2911 2915 2918 2922 2924 2925 2926 2927 2926 2928 2933 2935 2935 2937 2943 2949 2955 2961 2967 2970 2972 2976 2981 2987
2883 2883 2884 2883 2883 2883 2883 2882 2882 2882 2881 2880 2879 2879 2878 2878 2879 2881 2879 2878 2883 2887 2885 2884 2886 2885 2885 2887 2887 2888 2888 2888 2889 2890 2890 2891 2891 2891 2891 2891 2891 2890 2890 2891 2892 2894 2897 2899 2902 2904 2907 2911 2915 2918 2921 2923 2924 2925 2923 2922 2925 2928 2929 2932 2937 2942 2949 2956 2962 2965 2968 2971 2975 2981
2877 2877 2877 2877 2878 2877 2876 2876 2876 2876 2875 2875 2875 2874 2873 2874 2874 2876 2875 2874 2877 2882 2880 2879 2880 2881 2880 2882 2882 2882 2883 2884 2884 2885 2886 2886 2887 2887 2887 2887 2887 2887 2887 2887 2889 2890 2893 2896 2899 2902 2904 2908 2912 2915 2918 2921 2923 2924 2921 2918 2919 2920 2923 2927 2932 2937 2944 2950 2956 2960 2963 2966 2970 2975
2871 2870 2870 2871 2872 2872 2870 2870 2870 2869 2870 2869 2870 2870 2869 2870 2871 2871 2871 2870 2872 2876 2877 2875 2875 2876 2876 2877 2878 2877 2878 2879 2879 2880 2881 2881 2882 2883 2883 2884 2884 2884 2884 2885 2885 2887 2889 2892 2895 2899 2902 2905 2909 2911 2914 2918 2920 2921 2919 2916 2916 2916 2918 2922 2927 2933 2938 2943 2948 2954 2959 2962 2966 2970
2864 2864 2864 2865 2865 2865 2864 2864 2864 2864 2864 2864 2864 2865 2865 2865 2866 2867 2867 2867 2868 2870 2872 2871 2871 2872 2872 2873 2874 2873 2873 2874 2875 2876 2877 2877 2878 2879 2879 2880 2881 2881 2882 2882 2883 2884 2886 2888 2891 2894 2897 2901 2904 2907 2910 2913 2916 2918 2916 2913 2912 2913 2914 2918 2923 2927 2931 2936 2943 2950 2956 2960 2963 2966
2858 2858 2858 2859 2859 2859 2858 2859 2859 2859 2858 2859 2859 2860 2860 2861 2862 2863 2863 2863 2864 2866 2867 2868 2867 2868 2868 2869 2869 2869 2869 2869 2870 2872 2873 2873 2874 2875 2875 2877 2878 2878 2879 2880 2881 2882 2882 2884 2886 2889 2892 2896 2899 2902 2906 2909 2911 2914 2913 2910 2907 2908 2910 2914 2919 2923 2927 2932 2940 2946 2951 2956 2959 2963
2851 2851 2852 2853 2853 2853 2852 2853 2854 2854 2853 2853 2854 2855 2856 2857 2857 2858 2859 2860 2861 2862 2863 2864 2863 2864 2864 2865 2865 2865 2865 2865 2867 2868 2869 2870 2870 2871 2872 2873 2875 2876 2877 2877 2878 2878 2879 2880 2882 2884 2887 2891 2895 2898 2901 2904 2906 2908 2908 2905 2903 2904 2907 2912 2916 2921 2925 2930 2936 2941 2946 2950 2955 2959
2845 2845 2846 2847 2847 2847 2847 2848 2848 2848 2848 2848 2849 2850 2852 2853 2853 2854 2855 2856 2857 2858 2859 2860 2860 2860 2860 2861 2862 2861 2861 2862 2863 2864 2865 2866 2867 2868 2869 2870 2872 2873 2874 2874 2875 2875 2876 2877 2878 2880 2883 2886 2890 2893 2896 2899 2901 2902 2902 2901 2901 2903 2906 2910 2915 2919 2923 2927 2931 2936 2941 2945 2950 2954
2838 2839 2840 2841 2841 2841 2842 2842 2843 2843 2843 2843 2845 2846 2848 2848 2849 2850 2851 2853 2854 2855 2856 2856 2856 2856 2857 2857 2858 2858 2857 2859 2860 2861 2862 2863 2864 2864 2865 2867 2868 2870 2870 2871 2872 2872 2873 2873 2874 2875 2877 2880 2883 2886 2889 2893 2896 2898 2899 2899 2901 2903 2906 2909 2913 2917 2920 2923 2927 2931 2936 2940 2945 2949
2831 2833 2834 2835 2836 2836 2836 2837 2837 2838 2838 2839 2840 2842 2843 2844 2845 2846 2847 2849 2850 2851 2852 2853 2853 2853 2853 2854 2854 2855 2855 2855 2856 2858 2859 2861 2861 2861 2862 2864 2865 2866 2867 2868 2868 2868 2869 2869 2869 2870 2871 2873 2876 2879 2884 2888 2892 2894 2896 2898 2899 2901 2904 2908 2911 2915 2917 2920 2922 2927 2932 2936 2941 2944
2825 2827 2828 2829 2830 2830 2831 2831 2832 2833 2833 2834 2836 2837 2839 2840 2841 2842 2843 2845 2846 2847 2848 2849 2849 2849 2850 2851 2851 2851 2852 2852 2853 2855 2856 2858 2858 2859 2860 2861 2861 2863 2864 2865 2865 2865 2865 2866 2866 2867 2867 2869 2872 2875 2879 2883 2887 2891 2893 2895 2898 2900 2903 2906 2909 2912 2915 2917 2920 2924 2929 2934 2938 2941
2818 2820 2822 2823 2824 2825 2825 2826 2827 2828 2829 2830 2831 2833 2834 2836 2837 2839 2840 2841 2842 2843 2844 2846 2846 2846 2847 2848 2848 2848 2849 2849 2851 2852 2853 2855 2856 2857 2857 2857 2858 2860 2861 2861 2861 2862 2863 2864 2864 2865 2865 2866 2869 2872 2875 2878 2882 2886 2890 2893 2896 2899 2902 2904 2906 2909 2912 2915 2918 2921 2926 2931 2936 2939
2811 2813 2815 2817 2818 2819 2820 2821 2822 2823 2824 2825 2827 2829 2830 2832 2833 2835 2836 2838 2838 2840 2841 2842 2842 2843 2844 2844 2844 2845 2846 2847 2848 2849 2850 2852 2853 2854 2855 2854 2854 2856 2857 2858 2858 2859 2860 2861 2862 2862 2863 2863 2865 2868 2871 2874 2877 2881 2885 2890 2893 2896 2899 2902 2903 2906 2909 2913 2916 2919 2923 2928 2932 2936
2804 2807 2809 2810 2812 2813 2814 2816 2817 2818 2819 2821 2823 2824 2826 2828 2830 2832 2833 2834 2835 2836 2837 2838 2839 2840 2841 2841 2842 2843 2844 2844 2846 2847 2848 2849 2850 2851 2851 2851 2851 2852 2854 2855 2855 2856 2858 2859 2859 2860 2860 2861 2863 2865 2867 2870 2873 2877 2881 2886 2889 2893 2896 2898 2900 2903 2906 2910 2914 2917 2921 2925 2929 2933
2798 2800 2802 2804 2806 2808 2809 2810 2811 2813 2815 2816 2818 2820 2821 2824 2826 2828 2830 2831 2831 2833 2834 2835 2836 2836 2837 2838 2839 2840 2841 2842 2843 2844 2845 2846 2846 2847 2848 2848 2849 2850 2852 2853 2853 2854 2856 2857 2857 2858 2859 2860 2861 2862 2864 2866 2869 2873 2877 2881 2885 2888 2891 2894 2897 2900 2904 2907 2911 2915 2919 2922 2925 2929
2791 2794 2796 2798 2800 2802 2803 2805 2806 2809 2810 2812 2814 2815 2817 2820 2823 2824 2826 2827 2828 2830 2831 2832 2833 2833 2834 2836 2837 2837 2838 2839 2840 2841 2842 2843 2843 2844 2844 2846 2847 2849 2850 2851 2851 2852 2854 2855 2856 2856 2857 2858 2859 2859 2861 2863 2866 2869 2872 2876 2879 2883 2886 2890 2894 2897 2901 2905 2909 2912 2916 2920 2923 2926
2785 2787 2789 2792 2794 2796 2798 2800 2802 2804 2806 2807 2809 2811 2814 2817 2819 2821 2823 2824 2825 2826 2828 2829 2829 2830 2832 2833 2834 2835 2836 2836 2837 2838 2839 2840 2840 2841 2842 2843 2845 2847 2848 2849 2849 2850 2851 2853 2854 2855 2855 2856 2857 2857 2858 2860 2862 2864 2867 2871 2875 2878 2881 2885 2889 2894 2898 2902 2906 2910 2913 2916 2919 2923
2779 2781 2783 2786 2789 2791 2793 2795 2797 2799 2801 2802 2804 2807 2810 2813 2815 2817 2819 2820 2822 2823 2824 2825 2826 2828 2829 2831 2831 2832 2833 2834 2835 2836 2837 2837 2838 2838 2839 2841 2843 2845 2845 2846 2847 2847 2849 2851 2852 2853 2853 2853 2854 2854 2855 2856 2858 2860 2862 2866 2870 2873 2877 2880 2884 2889 2894 2898 2902 2906 2910 2913 2916 2919
2773 2775 2778 2780 2783 2785 2788 2791 2793 2794 2796 2798 2800 2803 2807 2809 2811 2814 2816 2817 2819 2820 2821 2823 2824 2825 2827 2828 2829 2830 2830 2831 2832 2833 2834 2835 2835 2836 2837 2839 2841 2841 2843 2844 2845 2845 2846 2848 2850 2850 2850 2850 2850 2851 2852 2853 2854 2856 2858 2861 2865 2868 2872 2876 2879 2883 2888 2893 2898 2902 2905 2909 2912 2916
2768 2770 2772 2775 2777 2780 2784 2786 2788 2790 2791 2794 2797 2800 2803 2805 2808 2810 2812 2813 2815 2817 2818 2820 2821 2822 2824 2826 2827 2827 2828 2829 2830 2831 2832 2833 2833 2834 2835 2836 2837 2839 2840 2842 2843 2843 2844 2845 2847 2847 2846 2847 2847 2847 2848 2849 2850 2852 2854 2857 2860 2863 2866 2870 2874 2877 2882 2887 2892 2897 2901 2904 2908 2912
2763 2765 2767 2770 2772 2776 2779 2781 2783 2785 2787 2790 2794 2797 2799 2802 2805 2807 2808 2810 2812 2814 2815 2817 2819 2820 2821 2823 2824 2825 2826 2827 2828 2828 2829 2830 2831 2831 2832 2833 2834 2837 2839 2840 2841 2842 2842 2843 2844 2844 2844 2843 2844 2844 2845 2845 2846 2848 2850 2853 2856 2859 2861 2864 2868 2872 2876 2880 2886 2891 2896 2900 2904 2908
2757 2760 2762 2765 2768 2772 2775 2777 2779 2781 2784 2787 2791 2793 2796 2800 2802 2803 2804 2806 2808 2810 2812 2814 2816 2817 2818 2820 2822 2823 2823 2824 2825 2826 2827 2828 2828 2829 2830 2830 2832 2835 2837 2838 2839 2840 2840 2841 2841 2842 2842 2842 2842 2843 2843 2844 2844 2845 2847 2849 2852 2854 2857 2860 2863 2867 2871 2876 2881 2886 2891 2895 2900 2904
2752 2755 2758 2761 2764 2767 2770 2772 2775 2777 2780 2784 2787 2790 2794 2798 2798 2798 2801 2803 2805 2807 2809 2811 2813 2814 2816 2818 2820 2821 2821 2822 2823 2824 2825 2826 2826 2827 2828 2828 2830 2833 2835 2836 2837 2838 2839 2839 2840 2840 2841 2840 2841 2842 2843 2843 2843 2844 2844 2846 2848 2851 2854 2857 2860 2863 2867 2872 2877 2882 2886 2890 2895 2899
2747 2751 2753 2756 2760 2763 2765 2768 2771 2774 2777 2780 2784 2787 2792 2793 2794 2795 2798 2800 2801 2803 2806 2808 2810 2812 2814 2816 2818 2819 2819 2820 2821 2822 2823 2824 2825 2826 2826 2827 2828 2831 2833 2834 2835 2836 2837 2838 2839 2839 2839 2839 2840 2842 2843 2843 2843 2844 2844 2844 2846 2848 2851 2854 2857 2861 2864 2868 2873 2878 2883 2887 2891 2894
2743 2746 2749 2752 2756 2758 2761 2764 2767 2771 2774 2777 2780 2785 2788 2789 2790 2793 2795 2796 2798 2801 2803 2805 2808 2810 2812 2814 2815 2816 2817 2818 2819 2820 2822 2822 2823 2824 2825 2825 2827 2829 2831 2832 2833 2834 2835 2837 2837 2838 2838 2838 2839 2841 2842 2843 2843 2843 2843 2844 2845 2846 2848 2851 2855 2858 2862 2865 2868 2873 2878 2883 2887 2891
2739 2741 2745 2748 2752 2754 2756 2760 2763 2767 2771 2774 2777 2782 2785 2786 2787 2790 2791 2793 2796 2798 2800 2803 2805 2807 2809 2811 2813 2814 2815 2816 2817 2819 2820 2821 2822 2823 2824 2824 2825 2827 2829 2830 2831 2832 2833 2835 2836 2836 2836 2837 2838 2840 2841 2841 2842 2842 2842 2843 2844 2846 2847 2850 2853 2857 2860 2863 2865 2868 2873 2878 2882 2887
2734 2737 2740 2743 2747 2749 2752 2756 2759 2763 2767 2770 2774 2778 2781 2783 2784 2786 2788 2791 2793 2795 2798 2800 2803 2805 2807 2809 2810 2811 2812 2814 2815 2817 2818 2819 2820 2822 2823 2824 2824 2826 2827 2828 2829 2830 2831 2833 2834 2835 2835 2836 2837 2838 2839 2840 2840 2840 2841 2841 2843 2844 2846 2848 2851 2854 2858 2861 2863 2866 2869 2873 2877 2881
2730 2733 2736 2739 2742 2745 2748 2751 2755 2759 2763 2767 2770 2774 2778 2780 2781 2783 2785 2788 2790 2793 2796 2798 2800 2802 2804 2806 2807 2808 2810 2812 2813 2815 2816 2818 2819 2820 2821 2823 2823 2824 2825 2826 2827 2828 2830 2831 2832 2833 2833 2834 2836 2837 2838 2838 2838 2838 2839 2840 2841 2843 2844 2846 2848 2850 2853 2857 2860 2862 2865 2868 2871 2873
2726 2729 2732 2734 2738 2741 2744 2747 2751 2755 2760 2763 2766 2770 2774 2776 2778 2781 2783 2785 2789 2792 2794 2796 2798 2800 2802 2804 2805 2806 2808 2809 2811 2813 2814 2816 2817 2818 2820 2821 2822 2822 2823 2824 2826 2827 2828 2829 2830 2831 2832 2833 2834 2836 2837 2837 2837 2837 2838 2838 2840 2841 2842 2843 2845 2847 2849 2851 2854 2857 2860 2862 2864 2866
2722 2725 2728 2730 2733 2736 2739 2743 2746 2751 2755 2759 2763 2766 2769 2773 2776 2778 2780 2783 2786 2789 2791 2794 2796 2798 2800 2801 2803 2804 2806 2807 2809 2811 2812 2814 2815 2817 2818 2819 2821 2821 2822 2823 2824 2826 2827 2828 2829 2830 2831 2832 2833 2834 2835 2836 2836 2836 2837 2838 2839 2840 2841 2842 2843 2844 2845 2847 2849 2852 2854 2857 2859 2862
2718 2720 2723 2727 2730 2732 2735 2739 2743 2747 2751 2755 2759 2763 2766 2769 2772 2775 2777 2780 2783 2786 2789 2791 2793 2795 2797 2799 2801 2802 2804 2806 2807 2809 2810 2811 2813 2814 2816 2818 2819 2820 2821 2821 2822 2824 2825 2827 2828 2829 2830 2831 2832 2833 2834 2835 2835 2836 2836 2837 2838 2839 2840 2841 2842 2843 2844 2845 2847 2849 2851 2854 2857 2859
2714 2716 2720 2724 2727 2730 2733 2736 2740 2744 2748 2752 2755 2759 2762 2766 2769 2772 2775 2778 2781 2784 2787 2789 2791 2793 2795 2797 2798 2800 2802 2804 2805 2807 2808 2809 2810 2812 2814 2816 2817 2818 2819 2820 2821 2822 2823 2825 2826 2827 2829 2830 2831 2832 2833 2834 2835 2835 2836 2837 2838 2839 2840 2841 2842 2843 2844 2846 2847 2849 2851 2853 2855 2858
2711 2713 2716 2720 2724 2727 2730 2734 2737 2741 2745 2749 2752 2756 2759 2763 2766 2769 2772 2776 2779 2782 2784 2787 2789 2791 2793 2795 2796 2798 2800 2801 2803 2804 2806 2807 2808 2810 2811 2813 2815 2816 2817 2818 2819 2820 2821 2822 2824 2826 2827 2828 2829 2831 2832 2833 2834 2835 2836 2837 2838 2838 2839 2840 2842 2843 2845 2846 2848 2850 2851 2853 2854 2856
2707 2710 2712 2716 2720 2723 2727 2731 2735 2739 2743 2747 2750 2753 2757 2760 2763 2767 2770 2774 2777 2780 2782 2785 2787 2789 2791 2793 2794 2796 2798 2799 2801 2802 2803 2805 2806 2807 2809 2811 2812 2814 2815 2817 2817 2818 2819 2820 2822 2823 2825 2826 2828 2829 2831 2832 2833 2835 2836 2837 2838 2839 2840 2841 2842 2843 2845 2846 2848 2850 2852 2853 2854 2856
2704 2707 2709 2713 2717 2721 2724 2728 2732 2736 2740 2744 2748 2751 2755 2758 2761 2765 2769 2772 2775 2778 2780 2782 2785 2787 2788 2790 2792 2794 2796 2797 2798 2800 2801 2802 2803 2805 2806 2808 2810 2812 2813 2815 2815 2816 2817 2818 2819 2821 2823 2824 2826 2828 2830 2831 2832 2834 2835 2837 2838 2839 2840 2842 2843 2844 2845 2846 2848 2850 2852 2854 2855 2857
2702 2704 2707 2710 2714 2718 2721 2725 2729 2734 2738 2742 2745 2749 2753 2756 2760 2763 2767 2770 2773 2776 2778 2780 2782 2784 2786 2788 2790 2792 2793 2795 2796 2798 2799 2800 2801 2802 2804 2805 2807 2809 2811 2812 2813 2814 2816 2817 2818 2819 2821 2822 2824 2826 2828 2829 2831 2832 2833 2835 2837 2838 2840 2842 2844 2845 2846 2847 2849 2851 2853 2854 2856 2857
2699 2702 2705 2708 2711 2715 2719 2722 2726 2731 2735 2739 2743 2747 2751 2754 2758 2761 2764 2768 2771 2773 2775 2777 2780 2782 2784 2786 2788 2789 2791 2793 2794 2795 2797 2798 2799 2800 2801 2803 2804 2806 2807 2809 2811 2812 2813 2815 2816 2818 2819 2821 2822 2823 2825 2826 2828 2829 2831 2833 2835 2836 2839 2841 2843 2844 2846 2848 2849 2851 2853 2854 2856 2857
2697 2700 2703 2706 2710 2713 2717 2720 2724 2728 2733 2737 2741 2745 2749 2752 2756 2759 2763 2766 2769 2771 2773 2775 2778 2780 2782 2784 2786 2787 2789 2791 2792 2793 2794 2796 2797 2798 2799 2800 2802 2803 2805 2806 2808 2809 2811 2813 2814 2816 2817 2819 2819 2820 2821 2823 2825 2827 2829 2831 2833 2835 2837 2839 2841 2843 2845 2847 2849 2850 2852 2854 2855 2856
2696 2698 2701 2705 2708 2712 2715 2718 2721 2725 2730 2734 2739 2743 2747 2751 2754 2758 2761 2764 2766 2768 2770 2773 2775 2778 2780 2782 2784 2785 2787 2789 2790 2791 2792 2793 2795 2796 2797 2798 2800 2801 2803 2804 2806 2807 2808 2810 2812 2813 2815 2816 2816 2817 2819 2821 2824 2826 2827 2829 2831 2833 2835 2838 2840 2842 2844 2846 2848 2849 2851 2852 2853 2855
2695 2697 2700 2703 2706 2709 2713 2716 2719 2723 2727 2732 2737 2742 2746 2749 2752 2756 2759 2761 2763 2765 2768 2771 2773 2775 2778 2780 2782 2784 2785 2787 2788 2789 2790 2792 2793 2794 2795 2797 2798 2799 2801 2802 2804 2805 2806 2807 2809 2810 2812 2813 2814 2815 2817 2819 2822 2823 2825 2827 2829 2831 2833 2836 2838 2840 2843 2845 2846 2848 2850 2851 2852 2854
2693 2696 2698 2701 2704 2707 2710 2713 2717 2721 2726 2731 2736 2740 2744 2747 2750 2753 2756 2758 2760 2763 2766 2768 2771 2773 2775 2778 2780 2781 2783 2784 2786 2787 2788 2790 2791 2792 2793 2795 2796 2797 2798 2800 2801 2802 2803 2804 2806 2807 2809 2810 2812 2813 2815 2817 2819 2821 2823 2824 2826 2829 2831 2833 2836 2838 2840 2843 2845 2847 2848 2850 2851 2853
2692 2694 2697 2699 2702 2705 2708 2711 2715 2720 2725 2729 2734 2738 2741 2745 2748 2751 2753 2755 2758 2761 2763 2766 2769 2771 2773 2775 2777 2779 2781 2782 2784 2785 2787 2788 2789 2790 2792 2793 2794 2795 2797 2798 2799 2800 2801 2802 2803 2804 2806 2808 2809 2811 2813 2815 2816 2818 2820 2822 2824 2826 2829 2831 2833 2835 2838 2840 2843 2845 2846 2848 2850 2852
2691 2693 2695 2698 2700 2704 2707 2710 2714 2719 2723 2727 2731 2735 2739 2743 2745 2748 2750 2753 2755 2758 2761 2764 2766 2769 2771 2773 2775 2777 2778 2780 2782 2783 2785 2786 2788 2789 2790 2791 2792 2794 2795 2796 2797 2799 2800 2800 2801 2802 2804 2806 2807 2809 2811 2813 2814 2816 2818 2820 2822 2824 2826 2828 2830 2832 2835 2838 2840 2842 2844 2846 2848 2850